User: anonymous   Login
Location: Roanoke
(37.2710°N, 79.9420°W)
Time: 06:05:32
(UTC-04:00)
Language:

Cosmos 1441 Rocket - Orbit

View from above orbital plane
View from above orbital plane
View from above satellite
View from above satellite

Ground track
Ground track

The orbit data is extracted from the following two-line orbital elements,

1 13819U 83010B   16119.64883027  .00000945  00000-0  49653-4 0  9999
2 13819  81.1149 283.2889 0032357 279.9932  79.7644 15.14309101810976
Epoch (UTC): 28 April 2016 15:34:18
Eccentricity: 0.0032357
inclination: 81.1149°
perigee height: 501 km
apogee height: 545 km
right ascension of ascending node: 283.2889°
argument of perigee: 279.9932°
revolutions per day: 15.14309101
mean anomaly at epoch: 79.7644°
orbit number at epoch: 81097

The dashed part of the orbit path shows where the satellite is in the earth's shadow,  

DLR